Location: Congrier
(47.8099°N, 1.1170°W)
Time: 07:21:26
(UTC+00:00)

COSMO-SKYMED 1 - Pass Details

Date: 28 January 2023
Orbit: 621 x 623 km, 97.9° (Epoch: 24 March)

Event Time Altitude Azimuth Distance (km) Brightness Sun altitude
Rises 18:29:54 0° 11° (N) 2,920 5.8 -15.4°
Reaches altitude 10° 18:32:06 10° 9° (N) 2,008 5.0 -15.7°
Maximum altitude 18:36:27 71° 286° (WNW) 665 2.8 -16.5°
Drops below altitude 10° 18:40:46 10° 203° (SSW) 1,991 5.6 -17.2°
Sets 18:42:57 0° 201° (SSW) 2,892 6.4 -17.5°
